Wind_Speed
1 1 1 1 1 2 1 3 1 2 2 0 3 1 4 6 3 4 7 5 1 1 2 2 4 4 4 5 7 6 4 3 3 4 3 3 10 25 22 18 27 28 26 25 23 22 21 23 23 23 22 20 20 21 23 23 23 23 23 23 24 24 24 23 23 24 24 24 25 25 24 25 25 25 26 26 25 24 23 23 22 22 22 22 21 20 20 20 18 17 18 17 18 18 19 19 21
2 2 1 1 0 2 1 3 3 3 4 2 3 4 4 3 2 5 8 6 2 3 2 5 8 8 8 7 6 3 4 3 1 3 1 6 15 20 20 21 29 29 27 26 24 23 22 23 23 23 22 20 20 21 23 23 23 23 22 22 23 23 22 22 23 23 24 24 24 24 25 26 25 25 26 26 25 24 24 23 22 22 22 21 21 20 20 20 18 16 17 17 17 18 18 18 19
2 3 2 2 1 2 1 3 2 1 3 3 5 4 3 3 6 8 10 8 6 7 4 4 6 5 5 5 4 3 1 2 3 3 3 12 14 15 21 24 30 30 28 28 26 24 23 23 23 23 22 21 20 21 23 22 22 22 21 21 22 22 21 22 23 23 23 23 23 24 25 25 25 26 26 26 26 25 24 23 22 21 21 21 20 20 20 19 17 15 16 16 16 17 17 18 19
2 4 3 2 1 3 3 3 2 4 2 4 4 5 3 4 8 8 8 6 6 5 1 3 4 2 4 5 2 3 1 0 3 3 4 10 13 20 26 27 31 28 27 28 27 25 24 24 24 23 21 21 20 21 22 22 22 21 21 21 21 21 22 23 22 22 22 22 23 24 24 25 24 25 26 26 26 25 24 23 22 21 20 20 20 20 19 18 16 15 15 15 15 16 18 18 17
2 4 2 2 2 1 2 2 2 4 4 4 2 6 5 7 7 8 7 3 4 2 2 3 2 3 3 4 1 2 1 2 3 5 6 9 18 26 27 30 31 27 27 26 26 26 25 25 24 23 21 21 21 21 21 21 21 20 21 21 21 21 22 22 22 21 22 21 22 23 24 24 24 25 25 25 25 24 24 22 21 20 19 19 19 19 18 18 17 16 15 15 16 17 18 17 15
3 4 1 2 2 1 2 1 2 2 5 5 2 7 6 7 6 7 9 4 2 1 2 3 3 2 3 2 2 3 2 3 5 6 9 14 22 27 28 31 30 26 26 25 26 27 26 25 25 24 22 21 21 21 21 21 21 20 20 20 21 21 21 21 21 20 21 21 22 23 23 24 23 24 24 24 23 23 22 21 20 19 18 17 18 19 18 19 18 17 17 17 17 17 16 14 14
4 3 2 2 1 1 3 2 4 4 5 6 5 7 9 9 5 5 10 5 2 1 2 1 5 7 2 0 1 3 3 3 7 9 14 21 26 27 29 30 27 25 25 25 26 26 26 25 25 24 22 21 20 20 20 21 21 20 19 20 20 21 21 21 20 20 20 21 22 22 23 23 22 23 24 22 22 21 21 20 19 18 17 16 17 19 19 19 19 18 18 17 17 16 14 13 13
5 2 1 3 1 2 3 2 3 4 4 5 5 8 10 10 6 4 8 4 1 1 3 3 4 6 1 2 1 5 8 5 9 14 20 25 28 27 28 29 27 25 25 25 25 26 25 25 25 24 23 21 20 20 20 20 20 19 20 19 20 21 20 20 20 20 20 20 21 22 22 22 21 22 22 21 21 21 21 20 18 17 17 15 16 18 19 19 19 18 17 16 16 14 13 13 13
2 1 1 2 2 1 1 1 4 4 5 6 7 9 11 11 8 5 8 5 1 3 4 3 2 4 1 4 1 4 8 10 15 20 24 27 27 27 27 27 27 25 25 24 25 26 25 24 24 23 23 21 20 20 19 20 20 19 19 19 19 20 20 19 19 19 20 20 21 22 22 21 21 21 21 21 21 20 19 18 18 17 16 14 13 16 18 19 19 18 17 16 14 13 13 14 13
2 2 2 1 2 0 2 2 4 3 5 6 8 11 11 10 7 5 7 4 3 4 4 2 4 5 4 4 2 4 4 15 23 22 23 26 26 26 26 26 27 27 25 24 25 25 24 23 22 23 22 21 20 20 19 19 19 19 19 18 19 20 19 19 18 19 20 20 20 21 22 21 20 20 20 21 20 19 18 17 17 16 15 14 12 14 17 19 19 18 17 15 13 13 13 12 11
2 2 2 3 3 1 3 3 4 4 6 5 8 12 11 9 5 5 4 3 2 3 4 4 5 4 5 3 2 2 7 16 24 24 23 25 25 26 26 25 26 26 26 25 26 25 24 22 20 22 22 21 20 20 20 19 19 19 18 18 18 19 19 18 18 18 19 19 20 21 21 21 21 20 20 20 19 18 17 17 16 15 14 14 13 13 16 19 20 19 16 14 14 14 12 10 10
2 2 4 4 2 3 3 2 5 6 7 5 7 10 5 6 4 3 3 4 2 2 3 2 5 5 5 2 1 4 9 12 20 25 24 25 25 25 26 26 24 24 25 25 26 24 23 21 20 21 21 21 20 19 19 18 18 18 18 18 17 18 18 18 17 17 18 19 20 21 20 20 20 20 19 19 18 17 17 16 15 14 15 15 13 13 15 20 22 20 17 15 15 13 10 10 11
2 2 5 2 3 3 2 2 4 5 7 4 6 6 1 3 3 5 4 4 2 2 3 4 8 5 4 1 1 4 6 10 18 24 25 25 24 23 24 24 22 22 23 25 25 23 22 21 21 19 19 19 18 18 18 18 17 17 18 17 16 16 17 16 16 16 17 19 20 20 19 19 19 19 18 18 17 16 15 15 14 15 16 15 14 13 15 20 23 20 18 17 16 12 11 12 13
2 2 4 1 1 2 2 2 3 2 5 6 4 5 1 0 2 4 7 6 2 2 2 5 8 6 3 3 2 3 6 13 20 23 24 24 22 21 21 21 20 21 22 24 24 23 22 21 20 19 18 17 17 17 17 17 16 17 18 16 16 15 16 15 15 16 17 18 18 19 19 18 18 17 17 17 16 15 14 14 14 16 16 16 14 13 15 20 22 21 20 19 16 14 14 15 16
4 1 4 1 1 0 2 3 3 3 4 6 4 4 2 1 2 4 6 5 2 1 4 4 4 2 4 7 5 7 11 19 23 24 24 22 21 20 19 19 19 20 21 22 22 21 21 21 20 19 18 18 18 18 17 16 15 17 18 16 16 16 15 15 14 16 17 17 17 17 17 16 16 16 16 16 15 15 14 13 14 16 16 16 15 14 16 21 23 23 21 19 18 16 16 16 17
3 2 4 1 1 1 3 3 2 2 5 6 5 5 3 2 2 3 2 5 4 2 3 1 1 2 5 6 7 14 18 22 25 25 24 22 21 20 18 18 18 19 21 22 22 21 21 21 20 19 19 18 18 19 18 16 16 17 18 17 16 16 16 15 15 17 16 17 17 16 15 14 14 14 15 14 14 14 13 13 14 15 16 17 15 14 17 22 24 24 21 19 19 17 16 16 16
2 3 2 1 2 3 3 4 2 1 6 7 6 4 3 4 4 2 2 5 7 3 3 3 4 3 3 4 14 24 23 24 27 25 23 21 21 20 17 17 18 19 20 21 22 22 21 21 21 20 20 19 19 19 19 17 17 19 18 17 16 16 16 15 17 17 16 16 18 17 16 15 14 14 14 13 13 13 12 13 15 15 16 17 15 14 17 22 25 24 21 19 19 17 16 15 15
1 3 2 2 3 3 4 6 4 2 3 6 6 3 5 3 4 2 4 6 4 4 5 4 6 7 6 12 24 27 24 26 27 26 21 18 18 17 15 17 19 19 18 19 20 22 22 21 21 21 21 21 20 20 19 18 19 20 19 17 16 16 16 16 17 17 16 17 19 18 17 16 14 14 13 13 13 12 12 13 14 16 16 16 15 13 16 22 25 24 21 19 18 16 14 14 14
3 3 2 4 4 4 5 5 5 2 3 7 6 4 3 2 1 2 3 1 1 5 4 5 8 8 10 16 23 23 24 25 24 24 19 16 16 15 15 17 18 18 18 18 19 21 21 22 22 22 22 21 20 20 20 19 20 20 19 18 17 16 16 17 17 17 17 17 19 19 17 16 15 14 13 12 13 12 12 12 14 16 16 15 15 13 14 21 24 23 21 19 17 15 13 13 14
3 3 2 5 5 5 6 7 9 7 5 6 6 4 5 2 1 2 5 3 1 3 2 3 7 8 11 12 15 19 20 20 20 20 17 15 15 16 16 14 13 13 14 15 16 18 19 21 21 21 21 20 20 19 19 19 20 20 19 20 18 18 18 18 18 18 17 17 18 18 17 16 14 13 12 12 13 12 11 12 13 15 16 15 16 14 14 18 22 22 20 18 16 14 12 13 14
2 3 5 5 4 4 8 8 8 8 5 4 5 3 5 5 1 3 7 5 2 4 5 5 9 12 14 11 12 14 15 15 15 15 14 13 12 14 13 14 15 14 12 11 11 13 15 17 19 19 19 19 19 19 20 21 20 20 20 20 19 19 18 19 18 18 18 17 17 17 16 16 14 13 12 13 14 14 13 13 13 15 16 16 16 16 14 16 20 22 20 17 15 13 12 12 12
2 4 5 4 3 5 8 4 6 7 4 4 4 2 1 4 2 4 7 5 4 6 4 7 14 16 16 15 12 10 11 11 10 10 11 12 12 13 15 18 18 17 19 17 15 15 14 16 17 17 17 18 18 18 19 20 18 19 19 19 19 18 18 18 18 18 18 17 16 16 16 16 15 14 13 14 15 15 15 14 14 15 16 16 16 17 16 16 18 20 19 17 15 13 11 11 10
2 5 4 5 5 6 6 2 6 6 3 5 4 2 1 2 3 2 6 6 7 5 4 10 13 15 17 15 12 11 11 8 9 9 11 14 15 15 18 23 22 21 25 24 22 21 18 17 18 17 17 16 15 15 16 16 16 17 18 17 18 18 18 18 18 18 18 17 17 16 17 17 16 15 14 14 15 16 15 14 15 15 15 15 15 16 17 17 17 18 18 16 14 12 10 9 9
4 5 5 6 6 8 9 6 7 5 4 8 3 1 1 1 4 3 1 4 4 2 5 11 11 11 13 12 13 13 10 8 10 11 13 17 18 18 19 23 24 22 26 27 25 25 22 20 19 18 18 18 16 14 15 17 16 16 16 14 16 18 18 19 19 19 18 17 17 17 17 17 17 16 15 15 15 16 15 14 14 15 14 14 15 15 17 18 18 18 17 15 13 10 9 8 9
4 6 6 5 5 8 10 8 9 7 6 7 1 1 5 6 1 2 5 4 1 4 8 11 10 9 9 10 12 10 8 9 11 13 14 15 18 19 18 22 24 21 23 25 26 26 25 24 23 21 21 20 19 18 19 20 18 17 17 14 15 17 18 19 19 18 18 18 17 17 17 17 17 17 16 16 15 15 14 12 13 14 14 14 14 15 16 17 18 18 17 15 12 9 7 8 10
6 7 6 5 7 9 7 6 8 8 5 2 2 4 8 5 1 2 7 3 4 7 9 10 10 9 8 8 9 8 9 9 11 13 14 15 18 18 17 22 25 23 21 23 25 25 26 26 26 25 24 21 22 23 21 21 19 17 17 16 17 17 17 18 19 18 18 18 18 18 17 17 17 17 17 16 15 14 13 12 13 15 15 15 14 15 15 16 17 18 17 15 12 9 7 7 11
5 6 6 7 9 9 4 5 8 6 4 5 6 7 8 4 0 3 7 3 6 9 9 9 10 10 9 8 7 8 9 11 13 15 14 14 17 18 19 22 27 25 22 24 26 26 26 26 26 27 27 25 26 26 24 21 18 16 17 18 18 18 18 18 19 19 19 19 19 19 18 17 17 17 16 16 15 14 14 13 13 14 16 16 15 15 16 15 15 16 15 13 11 9 8 8 11
3 3 4 7 7 6 4 6 7 3 2 7 8 6 6 4 2 6 6 4 7 9 9 9 9 9 8 8 6 6 7 11 15 16 14 15 19 21 22 25 28 27 26 27 28 28 27 26 26 27 28 29 30 30 26 23 21 19 20 20 19 19 19 19 21 21 20 20 20 19 19 18 18 18 17 16 15 15 15 14 13 14 15 15 15 15 16 16 15 14 12 11 10 9 8 10 13
3 1 3 7 5 4 5 4 5 5 2 7 7 2 6 3 6 6 3 5 7 9 9 8 8 7 7 7 6 6 7 10 14 15 17 21 23 24 25 27 29 30 30 28 27 27 27 28 28 29 29 30 32 31 28 25 24 23 22 21 20 21 21 21 22 22 21 22 20 19 19 18 19 18 17 16 16 16 16 15 14 14 14 15 14 14 15 15 14 13 11 9 9 8 9 13 14
2 1 2 4 6 4 7 2 3 6 3 5 7 2 7 7 10 5 0 6 8 7 8 7 7 7 6 6 6 6 7 9 12 15 20 23 23 25 26 27 29 30 30 28 27 27 28 30 31 31 30 28 28 27 27 27 26 25 24 23 22 22 22 23 24 24 23 23 21 20 19 20 20 19 18 17 17 17 16 16 15 13 13 14 14 13 13 13 13 11 10 10 10 8 11 15 15
2 2 1 1 1 4 8 2 4 5 2 3 6 2 7 10 12 3 3 6 10 8 8 7 7 6 6 6 7 8 7 10 14 17 20 21 22 24 25 27 28 27 26 27 27 28 30 31 30 29 27 28 27 24 25 28 28 27 26 24 23 22 24 25 26 25 24 23 22 21 21 21 21 21 19 18 18 18 17 16 15 14 13 13 14 14 12 12 13 12 11 12 12 11 13 15 15
2 0 2 3 2 4 9 4 4 5 2 1 5 2 6 10 11 1 5 7 9 9 8 8 8 8 7 6 7 8 7 9 14 16 17 18 20 21 24 25 24 23 23 27 29 28 26 24 21 20 23 28 28 25 25 26 26 26 26 25 23 23 24 26 26 25 24 23 22 21 22 22 22 22 20 19 20 19 18 16 16 15 13 14 15 15 14 14 15 15 14 14 13 13 15 16 15
3 2 2 3 1 2 5 5 2 4 2 2 2 3 4 6 6 3 5 8 8 8 9 10 10 8 8 6 7 7 6 7 9 11 14 16 16 18 21 22 21 20 22 27 30 26 20 18 15 16 24 28 24 22 23 24 24 25 25 25 25 25 26 27 27 25 24 23 23 23 23 23 23 23 21 20 20 19 17 17 17 16 15 15 16 16 16 16 17 17 15 14 14 14 15 16 15
3 2 0 2 2 1 2 4 5 1 4 2 2 4 7 9 6 3 3 6 9 9 11 11 9 7 6 6 7 7 7 7 5 7 12 15 16 16 19 21 22 22 23 27 27 23 20 19 19 20 27 31 26 24 24 24 24 23 24 25 25 27 28 28 27 26 25 24 24 24 24 25 25 24 23 21 20 18 17 18 18 17 17 16 17 18 18 17 17 18 16 13 12 13 14 16 16
3 0 1 2 3 1 2 3 3 2 1 3 2 4 11 12 10 5 4 4 8 10 10 9 7 6 6 6 6 6 7 4 3 8 13 16 16 17 19 21 22 22 22 22 22 21 21 21 21 22 29 33 32 29 27 27 25 23 24 24 23 25 26 26 26 26 26 25 24 25 25 26 26 26 25 22 20 19 18 20 19 18 20 18 19 20 19 18 17 16 15 14 13 13 14 16 16
7 4 4 1 2 3 4 4 6 2 1 4 5 8 11 12 11 7 6 4 4 7 6 5 4 4 6 5 5 6 5 2 5 12 15 16 18 19 19 21 21 21 20 22 22 22 22 23 23 26 30 32 33 32 31 31 28 24 24 23 23 25 26 26 27 26 25 24 24 25 26 26 26 27 27 23 22 21 20 21 21 20 21 20 20 21 19 17 17 16 15 15 15 14 12 15 16
5 3 2 1 1 4 5 5 6 1 3 6 9 10 10 11 9 6 5 6 3 3 7 7 6 5 5 5 7 6 3 3 8 14 16 17 18 19 19 20 20 20 21 23 25 26 26 28 30 30 29 30 34 36 35 35 32 27 25 25 26 27 27 27 27 26 24 23 24 25 27 27 26 27 28 25 23 22 21 22 23 22 22 21 21 21 19 17 17 16 15 16 17 16 14 15 17
3 2 1 3 2 4 6 4 6 1 5 5 5 8 10 11 7 6 6 7 7 4 2 6 7 7 5 6 7 3 5 4 8 12 13 16 17 18 19 21 22 23 24 26 28 30 31 31 31 31 31 32 36 39 38 37 36 34 31 29 30 30 30 28 27 27 25 24 24 26 28 28 27 27 28 27 25 25 23 23 24 24 22 21 20 18 17 18 18 18 19 19 18 18 17 17 19
3 2 2 3 2 3 6 5 6 1 3 3 3 6 8 9 5 5 7 6 5 7 5 3 4 5 6 5 2 6 6 5 7 7 9 14 17 19 19 20 24 25 25 27 29 30 30 29 28 30 33 34 36 37 36 37 36 36 35 33 32 30 29 29 28 27 26 25 25 27 27 28 27 27 28 27 26 27 26 25 26 25 23 21 19 18 18 19 19 20 21 21 19 17 17 18 19
3 3 3 3 2 0 3 4 6 3 1 1 5 5 4 7 4 4 4 3 5 10 10 9 7 5 4 1 5 7 7 6 8 7 8 12 16 18 18 20 22 22 23 26 29 28 28 30 29 30 33 34 35 33 32 34 34 35 36 33 32 30 27 27 26 25 26 26 27 28 27 27 26 27 27 26 27 28 27 27 27 26 24 21 20 20 21 22 22 22 22 22 21 19 17 18 17
2 4 5 4 3 3 5 4 5 5 5 3 6 5 4 5 6 4 3 3 10 13 13 14 12 9 6 5 6 6 8 9 10 11 11 12 15 18 18 19 20 21 24 27 28 28 30 32 31 32 33 32 33 32 30 32 32 33 32 28 26 25 23 23 25 26 28 29 29 29 28 26 26 27 26 26 27 27 27 26 27 28 26 23 22 21 23 23 22 22 22 22 22 20 19 20 17
3 4 8 8 6 6 5 3 4 5 5 4 6 5 3 4 6 6 7 8 13 12 14 16 13 13 11 6 4 3 6 8 10 13 13 12 16 20 18 19 22 25 28 27 27 30 32 32 32 33 33 33 34 33 29 29 29 30 30 27 26 25 24 26 29 30 30 31 31 30 28 26 26 27 26 26 26 27 27 26 26 27 27 26 24 22 23 23 22 22 22 22 22 20 20 21 19
2 5 9 9 6 5 4 2 4 2 0 3 4 6 2 4 7 8 8 9 12 12 15 16 13 13 12 8 6 4 5 7 9 10 10 9 13 17 17 21 26 29 29 25 26 30 30 30 32 33 34 35 35 33 28 26 27 29 31 32 32 32 30 28 28 28 29 30 30 29 28 26 26 26 25 25 26 26 26 25 24 25 27 26 25 24 23 22 22 21 21 22 21 21 20 22 22
3 6 7 7 6 6 5 5 4 2 2 4 5 4 4 2 5 8 8 7 11 13 16 15 13 13 13 11 9 6 5 7 9 8 7 7 12 16 19 24 27 27 26 24 26 30 30 29 30 32 33 34 35 33 28 25 24 24 25 25 26 27 26 23 23 24 26 28 28 27 26 25 25 25 24 25 25 26 26 26 24 24 26 26 25 25 23 22 22 21 21 21 21 22 21 21 23
7 7 6 7 6 6 5 6 3 1 2 2 6 3 5 1 5 7 7 7 10 13 14 14 13 13 12 12 12 10 7 4 5 4 3 2 4 8 12 18 22 21 20 23 26 28 28 26 26 28 30 32 32 29 27 25 23 20 20 18 16 16 18 18 20 21 22 24 25 25 25 24 25 25 24 24 25 26 26 25 24 24 24 25 25 23 22 22 22 22 21 21 22 23 22 21 22
6 5 5 3 3 4 4 5 4 3 4 2 7 1 5 2 5 6 6 5 7 8 9 10 12 12 11 11 11 11 9 6 6 5 5 7 10 9 8 7 8 10 13 18 21 21 23 23 22 23 25 27 26 25 26 25 23 20 18 16 13 13 15 15 16 18 19 20 22 23 24 24 25 25 25 25 25 26 26 25 24 24 24 24 24 22 22 22 22 22 20 20 22 23 23 22 22
3 5 5 5 5 5 4 3 4 3 1 5 8 1 5 1 3 4 4 3 4 5 6 8 10 12 11 10 11 10 9 7 7 7 8 12 16 18 19 18 17 14 8 6 9 12 15 17 17 16 16 16 15 17 20 21 21 18 15 14 12 12 15 14 13 15 17 18 20 21 22 24 25 26 25 25 26 26 26 26 25 23 23 24 24 23 23 22 21 21 20 19 22 23 23 23 22
5 5 4 4 2 5 4 4 4 4 2 6 5 2 8 3 2 2 4 4 5 5 5 7 9 10 10 10 10 10 8 8 8 8 8 11 13 17 20 22 25 27 24 19 15 12 13 14 14 12 9 7 6 7 11 16 17 15 12 13 15 14 15 15 14 14 16 18 19 19 19 20 22 23 25 26 27 28 27 27 26 24 23 24 24 24 23 22 21 21 20 19 20 22 22 22 22
5 4 5 5 1 2 1 3 1 2 3 3 4 3 6 1 2 1 4 5 5 5 6 7 9 9 9 10 9 9 9 9 9 8 8 8 8 11 14 16 18 22 23 22 19 16 13 14 16 16 13 9 6 5 6 12 16 15 12 11 15 16 15 15 15 16 18 20 21 22 21 20 20 21 24 27 28 28 28 27 26 25 24 24 25 24 24 23 22 21 20 19 20 21 22 22 22
5 6 5 5 3 2 2 3 0 2 2 2 4 2 3 0 1 4 5 4 4 6 7 8 9 9 9 10 11 10 11 10 9 9 9 8 9 10 11 11 11 13 15 16 15 14 11 10 12 14 12 11 10 7 6 8 11 14 15 13 13 16 17 17 18 19 22 23 24 25 24 23 24 24 25 28 28 28 28 26 25 25 25 24 25 25 24 23 23 22 19 19 21 21 21 21 21
3 4 6 6 5 4 3 3 3 3 2 1 2 1 3 2 1 4 5 4 5 7 8 8 9 9 8 10 11 11 12 11 9 9 10 10 12 14 14 15 13 12 14 14 13 12 11 9 6 6 6 10 13 12 9 8 7 8 14 18 15 15 18 20 20 21 23 25 26 26 24 25 27 27 27 28 28 28 27 25 24 24 24 24 25 26 24 23 23 22 20 19 21 21 21 20 21
1 2 6 4 5 6 3 3 5 5 2 2 3 2 1 1 3 5 5 5 7 8 8 9 10 9 9 10 10 10 9 8 8 8 8 10 13 16 17 17 17 16 17 17 17 15 13 11 9 6 5 6 8 9 9 11 11 10 14 17 16 17 20 20 20 20 22 24 25 26 25 25 26 27 27 27 27 27 26 24 22 23 24 25 26 26 25 23 22 22 21 20 20 21 21 20 19
1 2 4 3 4 8 5 2 1 3 4 1 1 3 2 1 3 5 7 7 7 8 8 9 9 10 11 10 9 9 8 7 8 7 7 9 12 15 16 17 18 20 21 21 22 21 17 14 12 10 9 9 9 10 11 11 11 11 13 15 15 18 21 20 18 18 20 24 25 24 24 23 23 25 26 26 27 27 25 22 21 22 24 25 25 25 24 23 22 22 22 21 20 21 21 19 19
4 3 5 2 3 5 4 2 2 4 4 1 2 3 2 1 1 2 6 7 6 7 7 8 10 11 10 9 8 9 9 9 9 9 9 11 14 17 17 18 20 21 22 23 24 23 20 18 16 13 13 13 13 14 14 12 9 8 11 14 16 16 17 17 17 17 20 24 24 23 23 22 23 24 24 25 28 27 23 22 21 21 23 24 24 24 22 22 22 21 21 21 21 21 21 20 19
5 5 4 4 3 1 1 3 2 2 3 1 3 3 1 0 1 2 5 6 6 6 8 10 11 11 9 8 9 9 9 9 10 10 10 11 15 18 18 19 20 21 23 24 24 24 22 21 19 17 15 14 14 14 14 12 10 11 12 15 18 20 19 17 17 18 19 21 23 23 23 22 23 23 23 24 26 26 23 23 23 21 22 24 24 23 22 21 21 21 21 21 20 21 21 20 19
3 4 3 2 3 4 2 2 3 4 3 2 2 2 1 0 1 2 5 5 6 7 8 10 10 10 8 8 8 9 9 9 10 10 9 11 15 18 18 18 18 19 21 22 22 23 23 23 22 21 18 16 14 14 12 12 13 14 16 18 20 21 19 17 16 17 18 20 22 23 23 22 22 22 23 24 25 25 24 24 24 23 22 24 24 22 22 22 21 20 21 20 20 20 20 19 18
1 3 2 0 2 3 2 1 2 4 4 4 3 1 1 0 2 4 7 6 5 8 9 9 8 8 9 9 9 9 9 9 10 9 9 11 15 18 19 19 18 17 19 21 21 21 22 23 24 24 22 19 17 15 13 12 14 16 18 20 20 19 18 18 19 19 20 22 22 23 23 21 20 22 24 24 24 24 25 26 25 23 23 24 24 22 22 22 21 20 20 19 19 18 18 17 16
3 3 2 3 3 4 3 1 1 2 4 4 5 3 2 2 3 5 8 7 7 9 10 8 8 8 8 8 9 9 9 10 10 9 9 11 14 17 19 20 20 20 20 21 21 21 21 22 23 24 24 22 19 16 13 12 12 16 19 19 19 21 21 20 20 21 23 23 22 21 21 19 20 23 24 24 24 24 25 26 25 23 23 25 24 22 21 22 21 20 20 19 18 18 17 17 17
Wind_Direction
138 117 91 162 189 150 103 71 91 329 89 262 264 233 256 229 241 285 294 293 53 346 290 5 44 73 101 122 151 152 105 137 169 148 204 251 153 160 165 162 159 158 157 160 162 159 162 162 160 158 157 157 154 152 152 149 144 143 140 137 135 135 132 129 129 128 126 124 123 122 119 117 115 114 114 114 113 112 112 110 110 109 109 107 106 106 105 106 104 98 96 93 91 91 89 91 95
125 148 132 163 26 131 208 75 102 336 59 308 271 183 255 279 255 246 250 257 172 181 188 88 79 80 89 103 120 103 58 28 125 140 138 134 137 156 166 166 165 161 159 160 161 160 161 162 161 158 157 158 156 153 153 150 147 146 142 138 138 136 131 129 129 127 126 124 123 122 120 118 117 116 115 115 113 112 111 110 110 111 111 109 109 108 107 109 107 100 97 96 95 93 91 90 92
127 173 191 156 55 53 88 47 98 66 93 244 271 226 267 298 241 234 233 228 183 175 166 98 83 80 76 68 46 58 106 8 107 116 111 140 139 158 166 168 167 163 160 160 160 161 160 161 162 159 159 159 157 155 154 152 150 148 142 139 140 136 131 130 128 127 125 123 123 122 121 120 119 118 117 115 114 112 111 111 111 112 112 111 112 111 111 111 108 101 98 97 96 94 96 96 93
151 178 209 176 55 22 68 49 133 124 147 221 265 258 244 236 244 250 246 224 192 178 107 60 55 3 69 82 61 64 191 231 134 146 137 161 163 161 165 167 165 161 159 160 162 162 160 162 163 159 160 160 159 158 156 155 153 149 143 141 140 135 132 132 129 128 125 123 124 123 123 123 122 121 119 117 115 114 112 112 111 111 111 112 114 115 116 114 110 104 101 99 98 100 104 103 94
175 174 195 125 96 13 103 89 117 127 202 197 234 261 233 226 251 278 274 249 242 233 91 95 68 327 63 89 120 113 194 114 147 174 136 157 164 159 162 164 162 158 157 160 162 161 161 161 162 161 160 162 162 158 156 157 154 148 143 141 139 136 134 133 129 129 126 125 125 125 126 126 126 124 122 119 118 117 117 116 115 114 114 115 116 117 117 118 115 110 108 108 110 111 109 102 90
173 151 100 58 99 177 113 113 147 197 231 179 205 267 254 247 254 289 296 305 287 205 99 114 129 112 78 43 91 133 217 146 145 169 145 150 160 159 160 160 159 157 158 160 162 161 160 162 164 163 161 164 163 158 157 158 154 148 144 142 140 137 136 133 131 131 129 128 127 127 128 128 128 126 125 122 120 121 123 120 116 114 113 114 119 121 122 124 123 118 120 120 119 115 109 99 84
173 144 30 54 30 31 108 153 186 228 245 187 204 258 262 270 267 312 306 310 78 116 42 106 131 110 110 349 102 7 347 151 148 162 158 152 158 159 158 158 156 156 158 160 162 161 159 163 166 165 164 164 163 159 158 158 155 150 146 142 140 140 137 135 133 133 131 130 129 129 130 130 129 129 127 125 125 127 124 119 115 114 112 114 120 125 126 128 129 128 128 126 122 116 109 96 84
172 162 26 103 54 10 106 164 215 218 248 222 229 257 265 274 276 305 293 286 151 198 100 154 113 87 272 355 115 337 19 104 148 158 157 151 156 157 158 158 154 155 159 160 161 160 159 165 168 166 165 163 162 160 158 157 155 152 149 145 143 144 141 138 136 136 134 132 133 131 131 132 130 131 129 128 128 126 121 118 117 116 117 117 120 126 129 131 134 134 133 129 124 117 107 95 87
131 91 98 110 149 9 70 261 253 234 258 263 258 263 267 272 277 280 274 285 202 161 127 181 45 91 189 31 63 313 29 106 136 144 149 150 155 156 159 159 156 156 158 161 160 158 160 167 169 167 166 165 164 161 159 157 156 154 151 148 148 147 144 141 139 139 137 135 136 134 134 133 132 134 133 130 127 123 121 121 121 121 121 117 116 125 132 136 138 139 138 132 125 115 105 96 92
35 42 147 94 119 153 314 260 252 255 250 260 264 262 264 269 274 254 248 258 205 146 121 81 51 104 122 55 9 320 65 126 130 132 142 148 154 158 161 161 160 158 158 161 158 158 162 166 168 168 168 167 166 163 161 159 158 157 153 152 153 151 147 144 141 140 139 138 139 138 137 136 136 137 135 132 127 124 126 126 125 124 121 116 114 121 132 139 141 143 141 133 123 111 105 99 97
30 333 107 80 82 178 249 248 263 267 263 283 281 266 256 253 256 248 213 179 214 134 142 77 79 117 90 76 359 45 126 133 133 135 144 150 156 162 163 162 163 161 159 158 156 159 161 162 167 169 170 169 168 166 163 162 159 159 158 157 156 152 149 147 143 141 141 140 140 142 142 140 140 138 135 132 129 130 132 130 128 126 121 116 113 116 129 140 145 147 143 131 119 109 103 100 99
110 288 72 98 144 188 207 239 271 276 283 290 271 270 242 216 201 197 154 141 163 117 192 148 137 142 78 83 353 105 125 131 138 141 150 156 162 166 166 164 162 160 156 155 156 159 160 161 167 169 171 170 169 166 164 163 162 162 161 159 156 154 152 149 145 143 143 142 142 144 145 144 143 141 138 134 133 136 135 131 129 126 120 115 113 115 127 140 147 148 141 127 116 107 98 95 98
138 175 91 128 189 168 192 230 275 295 297 265 243 273 166 178 187 168 127 94 118 161 225 159 142 117 78 132 126 125 129 142 146 147 156 161 166 167 165 164 158 155 152 154 156 158 160 162 166 167 168 169 168 166 166 165 165 165 160 159 158 157 156 151 148 147 146 145 143 144 147 147 146 146 142 138 139 140 136 132 128 124 119 115 114 117 129 140 147 146 136 124 113 101 94 96 103
170 172 116 176 203 144 200 238 283 290 281 263 249 281 291 139 203 145 107 83 344 222 168 135 136 102 101 152 132 163 156 159 157 155 159 160 163 160 158 157 153 152 152 155 155 157 161 163 165 164 165 168 167 166 167 167 166 165 161 162 162 161 160 155 153 153 150 148 146 145 149 152 152 148 142 141 144 141 138 133 126 123 119 116 116 120 131 141 146 141 131 122 111 100 95 100 107
185 147 100 131 316 53 218 215 236 205 258 269 266 305 354 64 126 94 108 121 339 196 121 122 139 72 167 168 172 182 165 165 165 159 156 153 152 151 152 152 151 152 154 155 152 157 161 163 165 163 166 167 167 168 168 168 168 168 166 167 168 167 165 161 160 158 154 154 151 149 150 154 154 149 144 145 146 144 141 134 128 126 120 118 120 123 133 142 142 136 130 123 113 103 97 102 110
174 94 76 115 245 225 221 212 201 200 261 263 278 327 12 328 88 100 225 145 120 135 101 75 308 2 167 177 171 159 159 164 164 157 150 146 145 144 147 149 151 154 155 155 154 158 161 163 165 164 167 168 170 170 168 170 171 171 171 172 173 172 172 170 165 160 158 161 159 155 152 153 154 152 150 150 148 148 146 136 131 128 122 122 124 126 135 142 139 136 132 126 118 106 100 105 115
110 89 77 273 211 198 213 209 180 175 262 272 311 348 92 331 2 89 327 74 114 127 43 27 353 24 138 158 146 147 156 161 157 152 146 143 140 135 137 143 150 154 155 156 156 158 161 163 165 167 169 171 174 172 171 173 172 174 175 176 175 174 177 175 165 162 165 167 166 164 160 158 160 159 157 159 155 151 147 140 136 131 125 125 127 128 138 143 140 139 136 130 122 109 104 108 117
121 117 143 219 201 204 199 201 214 173 262 282 312 352 101 27 339 61 30 32 81 74 35 43 34 40 94 128 139 146 156 156 153 152 146 143 139 132 134 142 149 154 153 153 156 158 160 164 167 169 171 175 177 175 175 174 174 176 176 176 175 175 177 173 167 166 168 168 169 170 167 166 167 165 162 166 162 154 149 145 140 135 129 127 131 131 140 148 145 143 140 134 125 112 106 107 116
168 136 158 222 202 217 214 215 253 231 252 281 297 319 49 74 215 78 83 331 28 80 42 50 63 72 104 128 138 148 155 155 157 154 149 149 145 139 142 150 153 153 150 150 157 160 162 166 169 172 175 179 179 177 177 176 177 178 177 177 176 175 175 172 170 169 166 166 171 172 172 172 172 171 166 166 164 156 153 150 144 140 134 130 134 136 141 151 152 148 145 138 125 113 107 104 114
184 140 188 237 207 237 258 244 263 266 263 280 285 325 2 329 171 78 129 143 14 133 171 93 96 120 129 138 144 151 158 158 160 155 150 149 148 149 150 147 134 126 136 143 153 162 166 168 171 176 179 180 178 177 177 178 181 182 181 179 178 176 175 174 174 170 166 167 171 173 175 177 177 176 169 165 166 162 159 156 150 144 140 135 137 142 144 152 158 154 150 143 125 112 110 103 110
183 172 203 238 189 233 260 242 261 280 293 273 265 360 360 310 16 100 129 116 312 243 225 165 145 148 146 157 159 159 165 162 156 148 142 139 141 148 131 105 95 92 114 134 150 164 168 171 173 175 178 179 179 179 179 182 186 186 185 184 181 177 177 177 177 174 170 170 171 173 177 179 179 178 174 172 172 169 165 162 156 151 147 142 140 147 148 152 160 160 156 148 127 112 110 105 106
185 230 222 234 186 236 257 236 249 266 290 283 286 356 328 307 11 132 140 143 230 235 215 165 156 158 160 165 164 166 174 163 138 128 128 127 136 139 117 114 125 131 143 156 165 170 173 174 175 173 174 180 183 183 182 186 190 190 188 187 183 180 181 181 180 178 175 175 175 176 178 179 181 179 179 178 177 176 172 165 161 157 153 147 143 148 153 153 159 162 162 153 134 117 113 110 106
207 271 247 227 212 237 267 260 252 256 249 254 261 269 160 26 324 189 156 181 226 249 156 152 162 162 163 160 159 173 180 154 116 120 128 133 145 142 134 141 149 152 158 166 170 174 178 176 175 171 169 176 183 184 185 191 194 193 192 192 188 186 187 186 183 182 182 182 181 182 182 183 183 181 185 183 181 180 177 170 164 162 158 154 150 149 155 158 161 164 165 160 145 127 120 125 122
197 264 270 248 221 229 254 247 259 268 232 245 237 42 321 295 295 313 263 230 232 272 121 141 157 156 157 158 166 177 164 125 117 134 140 145 151 148 151 156 154 156 161 168 173 175 178 178 177 176 176 178 181 186 191 197 198 197 197 197 195 194 195 191 187 186 188 189 186 186 188 188 185 185 188 185 183 183 182 178 171 167 164 163 159 154 155 160 164 168 169 167 157 139 131 143 145
203 236 261 262 241 236 250 247 258 264 246 261 256 203 246 223 240 328 279 286 105 117 115 130 142 147 160 166 174 169 132 118 131 143 146 148 148 147 158 162 160 163 161 165 172 174 178 182 181 185 187 182 182 189 196 200 199 199 198 199 202 203 203 197 190 189 193 194 191 191 193 193 192 192 191 186 185 184 185 184 177 174 170 170 170 163 159 160 166 170 171 170 165 156 151 158 162
213 220 249 263 263 254 250 245 247 245 236 235 194 252 261 237 145 285 266 263 116 115 117 131 139 152 169 173 174 154 134 141 148 148 150 153 151 146 148 160 171 175 166 164 169 174 180 183 184 188 190 185 186 190 195 201 199 198 200 202 207 209 208 203 194 193 197 198 196 196 199 201 200 198 193 189 186 183 183 179 176 178 176 175 176 173 169 166 168 171 173 172 171 176 180 175 174
206 207 248 247 257 266 236 224 238 234 226 183 186 236 267 285 153 253 273 224 137 115 126 144 147 163 174 176 170 152 155 161 156 150 150 161 163 154 146 159 177 181 175 170 171 179 182 183 185 188 189 189 191 191 191 197 195 198 209 211 210 210 210 206 198 197 201 203 203 200 203 209 208 203 197 192 186 182 179 174 172 177 179 177 174 178 178 176 176 179 181 180 182 190 197 194 185
237 229 289 265 265 283 228 215 231 204 224 192 178 229 272 316 221 225 248 195 144 127 143 158 157 170 175 172 163 159 174 165 159 157 162 178 179 168 159 166 177 182 184 179 176 181 180 180 184 188 190 191 193 192 188 189 190 198 212 212 209 212 212 209 203 202 205 205 206 204 205 212 213 209 203 195 187 181 178 174 170 170 175 174 170 175 181 182 185 189 191 190 191 196 206 203 194
280 268 311 290 341 332 244 222 212 172 200 191 150 314 297 267 233 242 247 170 144 134 152 165 167 173 173 168 163 174 179 163 168 176 182 186 184 177 172 176 182 184 188 184 177 177 178 181 186 191 194 196 197 194 187 186 191 198 207 210 211 215 214 213 208 205 207 206 205 204 206 212 214 213 209 199 189 182 178 175 171 167 169 170 168 169 175 183 189 193 198 195 191 196 202 196 194
298 50 141 288 3 337 263 252 178 164 188 179 133 302 280 261 253 261 221 156 132 135 164 172 177 179 174 164 168 186 179 171 184 192 192 190 187 181 178 184 187 186 185 181 176 177 182 186 190 193 194 198 202 198 191 189 194 199 204 210 214 216 215 215 212 208 207 206 205 205 208 210 212 214 211 202 191 184 181 178 177 174 172 175 175 173 179 188 196 201 200 190 186 192 194 190 192
324 327 72 333 54 279 289 298 158 156 226 166 115 253 263 276 274 239 168 172 141 160 186 180 185 182 177 169 174 193 190 189 195 196 197 194 188 184 183 186 187 184 178 175 176 181 187 189 190 189 188 197 204 202 198 195 197 198 202 210 213 216 218 216 212 210 209 208 208 207 209 210 210 212 210 200 192 186 185 185 185 181 181 186 185 184 191 195 199 202 193 184 180 183 187 187 192
26 349 302 332 182 260 310 315 169 155 274 22 112 224 269 278 285 331 155 180 157 176 194 191 195 187 181 173 179 199 204 199 198 197 199 195 189 186 187 188 183 177 173 174 179 183 184 183 181 176 182 197 202 202 204 202 199 198 203 211 214 214 216 217 215 214 213 213 212 210 211 211 210 211 208 200 194 190 191 193 192 189 189 190 189 191 195 195 196 194 189 191 188 180 181 184 187
9 114 228 284 228 279 316 325 303 159 144 342 146 206 277 275 285 33 128 173 170 184 205 204 198 192 182 174 186 199 205 206 200 195 192 190 188 187 188 187 178 173 178 181 182 179 171 166 165 169 186 199 201 201 206 210 208 206 206 210 214 214 214 218 218 217 217 216 216 214 213 212 210 210 207 202 199 199 199 199 199 197 191 188 191 193 193 194 194 189 184 193 198 187 179 179 180
319 8 142 261 263 296 289 318 325 101 131 244 219 204 251 261 265 360 79 160 176 194 210 210 201 189 180 181 191 197 208 210 188 171 175 180 185 185 185 183 179 182 188 186 180 172 166 166 168 178 192 198 200 201 205 214 219 216 212 211 214 214 214 218 218 217 217 219 218 216 214 212 210 209 206 206 207 209 205 199 199 194 187 186 189 189 188 192 193 191 186 187 199 197 185 180 179
207 235 76 300 322 329 272 283 285 351 81 223 233 246 251 262 270 297 9 124 181 210 214 211 202 184 182 187 193 203 212 207 129 144 158 170 177 179 181 179 181 188 187 179 171 170 172 171 173 187 197 197 198 199 200 209 219 221 218 216 215 214 216 219 220 218 216 218 219 216 214 212 211 209 206 207 210 212 206 199 197 189 183 186 189 187 188 193 193 194 196 192 193 199 195 185 175
167 165 137 166 314 289 262 253 257 278 298 238 223 236 247 257 266 285 337 35 174 203 191 195 208 199 195 182 195 208 200 152 114 130 140 159 172 176 178 173 177 185 181 174 172 176 177 176 186 198 201 198 197 195 194 201 212 220 222 219 218 219 220 221 223 222 219 219 219 216 213 212 212 209 206 208 210 210 207 201 199 192 188 192 197 195 194 199 199 195 198 196 188 184 183 177 170
148 139 119 199 245 280 278 265 280 251 180 249 223 219 244 249 258 289 330 6 19 163 147 166 192 209 211 189 206 204 149 106 101 112 132 156 167 169 167 162 166 174 177 178 176 179 184 190 198 199 195 194 192 190 189 196 205 212 217 218 218 219 219 220 224 226 224 222 219 215 213 212 213 210 208 209 211 210 208 204 202 199 196 199 207 203 197 202 203 196 193 192 189 175 162 164 167
124 146 163 290 239 258 273 265 295 250 170 258 219 203 241 245 266 330 358 19 360 336 153 187 200 199 202 203 210 151 83 71 83 99 131 149 155 159 158 158 165 173 181 184 182 185 192 196 198 192 187 189 191 190 188 192 203 208 210 214 215 215 217 217 221 226 226 222 218 214 213 213 214 212 210 211 212 211 209 205 204 206 204 204 209 204 197 201 201 196 190 186 187 177 165 166 168
106 117 150 266 247 277 293 283 297 275 167 267 160 169 243 265 289 360 21 27 9 358 1 313 262 225 220 220 185 91 81 66 80 100 130 140 149 156 157 162 173 181 184 186 188 191 193 196 195 190 190 194 197 197 189 186 196 205 208 211 211 211 214 215 218 222 222 218 215 212 211 212 213 212 210 211 212 212 211 209 209 211 209 203 204 200 197 200 198 196 193 188 183 172 165 170 173
116 132 156 249 246 26 291 286 305 336 19 268 132 134 285 312 336 57 47 31 46 27 18 10 348 291 271 19 82 110 124 105 102 121 135 141 149 156 162 167 176 183 184 189 192 191 194 198 198 193 196 201 206 209 199 188 190 198 204 208 208 208 211 214 215 217 217 215 212 210 210 211 212 210 209 209 211 212 212 211 212 211 207 200 199 200 199 198 197 195 194 192 184 169 162 169 175
236 178 179 233 233 196 224 272 321 348 1 29 93 60 337 336 351 5 335 19 48 30 22 22 9 355 4 57 87 123 139 130 131 138 144 150 156 164 168 169 175 185 193 195 192 193 199 202 199 196 199 202 206 212 207 195 192 194 196 199 201 203 207 210 211 211 210 209 209 209 209 210 211 210 208 208 209 211 211 210 211 209 205 201 200 203 203 200 200 197 195 193 189 180 170 171 175
286 223 201 220 228 222 235 310 6 31 9 360 76 74 308 322 3 351 333 21 40 27 28 26 14 16 25 39 54 83 114 129 141 146 154 160 161 166 170 173 178 191 201 200 196 199 202 202 199 196 199 201 203 210 208 201 197 192 189 188 189 193 200 206 207 207 204 204 207 208 208 207 208 210 209 208 208 209 210 209 210 209 207 204 202 205 207 204 201 199 198 195 194 193 180 173 178
281 234 204 212 216 202 191 83 55 78 343 325 68 112 203 336 12 350 334 20 33 28 34 29 21 27 30 28 21 45 97 119 137 147 156 157 158 164 175 185 189 197 203 200 201 205 204 202 199 197 199 201 202 206 207 205 203 198 195 194 194 195 199 204 207 207 205 205 207 208 209 207 207 210 209 208 208 208 209 209 210 211 209 205 202 204 208 208 205 200 200 199 198 199 188 180 183
232 238 195 185 178 178 164 104 96 182 216 334 7 96 121 17 354 333 331 20 28 27 34 31 29 29 32 36 33 42 83 124 141 148 155 160 170 176 185 194 197 201 201 200 206 210 208 204 199 198 202 204 204 207 209 209 209 208 207 207 208 204 201 202 204 206 207 206 207 209 211 210 208 210 211 209 208 208 209 209 210 212 210 205 202 204 208 210 209 204 200 201 203 204 201 195 191
240 231 180 176 170 162 148 107 105 114 80 339 317 43 92 310 304 334 355 30 25 21 26 28 31 29 28 37 42 48 54 80 113 127 144 143 186 198 204 205 204 204 203 204 208 212 213 208 201 201 205 206 207 209 210 211 211 214 217 223 229 220 207 205 204 205 207 205 205 208 211 212 209 210 213 211 208 208 209 209 211 213 211 208 203 204 208 210 212 209 203 203 205 207 209 208 202
236 192 121 84 79 90 95 103 110 51 66 219 266 26 106 273 313 349 6 26 12 9 19 23 30 31 28 30 38 48 51 50 50 40 31 20 10 355 327 281 239 226 216 211 211 216 217 214 209 209 210 210 211 212 211 210 212 217 223 226 231 226 214 210 206 205 208 208 206 206 210 212 211 209 211 212 210 209 209 210 213 213 212 211 206 205 209 211 212 212 209 205 205 208 210 211 211
158 127 96 52 38 40 46 64 93 77 16 246 254 260 101 126 317 349 9 20 354 1 24 24 29 30 27 27 31 37 40 45 45 35 26 20 17 14 6 356 347 339 325 272 248 246 240 233 230 229 225 221 221 220 215 213 216 222 229 229 227 226 218 214 209 203 208 213 212 210 211 213 212 209 210 213 212 211 211 212 215 216 214 213 210 209 211 214 213 211 212 209 207 209 212 213 215
104 113 113 93 16 17 27 356 45 103 252 259 250 61 76 101 254 341 29 34 17 16 29 31 34 32 29 32 32 31 29 32 37 37 30 24 21 20 19 11 358 351 351 350 340 317 294 278 271 279 288 276 267 253 232 227 229 232 236 232 228 227 223 219 214 205 206 212 214 214 214 217 217 211 210 211 211 211 213 214 217 218 217 216 214 212 212 214 215 213 213 212 209 210 215 218 217
107 115 98 106 56 17 39 298 4 161 239 231 195 100 68 85 228 77 48 35 25 29 43 48 48 43 40 39 37 35 31 28 30 31 29 27 24 20 23 21 2 347 343 337 335 335 323 304 296 308 326 323 308 309 276 245 239 238 239 237 233 231 229 225 219 214 214 214 215 215 212 218 224 218 211 209 209 210 211 213 216 218 218 218 216 213 210 209 211 212 213 213 212 213 217 221 221
144 144 125 128 124 103 205 261 216 206 254 218 207 143 82 275 225 101 78 40 22 37 48 55 56 50 47 43 39 37 31 27 25 24 24 21 18 12 11 17 8 351 343 333 328 333 336 322 299 300 319 312 284 283 292 256 237 232 231 233 236 233 233 229 223 222 222 220 221 219 212 214 224 225 219 214 211 210 211 213 216 216 216 217 215 211 207 205 207 209 211 214 216 218 219 223 226
167 155 130 140 149 141 192 212 166 195 223 283 294 84 118 211 160 89 87 57 39 47 45 49 49 42 47 48 41 37 28 23 22 20 19 15 12 11 6 6 5 358 358 355 346 339 343 350 326 290 309 308 281 268 273 266 246 228 225 228 233 234 232 227 221 224 226 225 227 224 215 213 220 225 227 224 217 212 214 216 217 217 216 215 213 208 204 205 208 209 211 214 215 217 219 223 227
238 137 105 137 179 144 140 180 173 176 149 19 358 84 108 178 106 71 77 78 62 59 50 48 44 32 37 43 37 34 28 21 20 17 13 9 9 13 11 7 7 8 10 11 7 358 350 348 345 331 315 301 279 265 264 266 260 240 226 228 231 233 232 224 217 222 230 232 232 231 225 220 221 224 226 229 225 219 218 219 220 220 218 214 211 206 205 207 210 210 211 212 214 215 217 221 224
191 123 143 194 167 124 119 180 176 99 117 43 354 123 87 64 96 63 68 82 72 63 56 54 48 38 37 34 26 23 16 11 12 8 359 357 4 10 10 8 8 10 13 16 15 13 7 356 349 342 319 298 288 274 260 260 254 224 210 219 226 230 231 224 215 218 232 238 237 239 239 234 230 227 225 229 231 226 221 222 224 222 219 214 207 204 206 208 210 210 210 211 212 212 214 217 221
122 168 189 159 78 90 107 135 16 44 120 248 352 112 117 54 159 93 81 87 82 66 59 54 45 40 36 27 20 15 5 2 3 3 360 356 358 360 1 5 8 8 10 14 17 20 20 11 1 354 338 323 314 291 265 258 257 227 211 217 225 232 233 229 225 226 234 239 240 243 245 243 238 231 227 229 231 227 223 222 220 216 217 216 207 204 207 208 209 209 210 211 210 211 214 216 220
124 164 162 114 112 145 97 120 123 97 138 162 24 47 88 75 224 145 108 108 106 75 55 52 43 36 30 18 14 9 5 5 2 2 2 357 355 352 351 356 2 6 8 11 15 19 22 17 10 5 355 343 332 309 278 262 261 253 236 226 230 235 231 226 229 232 234 237 242 245 245 244 239 230 226 226 227 226 224 223 216 204 208 219 215 206 207 209 208 209 208 208 208 210 213 215 218
60 83 50 70 137 156 162 142 147 151 161 151 85 22 293 223 322 102 104 106 116 93 66 57 47 36 26 14 9 4 4 6 1 357 356 353 351 348 347 349 354 2 7 9 13 15 16 15 13 9 2 356 350 335 310 286 272 262 252 243 240 240 239 235 233 235 237 240 242 242 241 241 236 230 227 225 226 227 222 218 211 195 198 218 219 206 205 206 204 206 207 206 207 208 210 215 216
64 78 58 324 81 108 150 108 108 135 147 152 129 138 232 111 11 63 75 58 75 90 80 66 52 37 24 13 9 4 358 358 357 352 350 349 348 347 346 348 353 1 5 8 11 12 12 12 10 7 3 360 358 353 340 313 282 265 259 254 245 243 245 239 231 232 240 244 242 239 237 233 227 227 227 223 222 224 217 210 205 194 195 212 214 202 200 202 200 201 203 204 206 206 208 212 213
132 126 132 155 126 116 125 150 289 92 117 156 146 152 183 80 57 71 71 53 52 72 78 71 54 40 26 13 9 4 356 353 352 349 347 346 346 345 345 349 357 3 4 6 7 8 10 9 7 5 2 360 357 351 346 328 291 263 258 259 253 249 247 239 233 237 241 238 235 233 229 220 217 222 224 221 215 213 211 207 201 194 196 205 205 198 198 199 198 199 199 201 203 203 205 208 210
Height
772 773 772 773 772 772 773 773 786 791 795 804 802 798 782 770 768 764 759 752 752 750 745 743 741 742 746 751 753 756 759 761 763 770 771 759 753 755 756 757 759 761 763 766 768 770 770 771 773 775 778 780 783 784 786 787 788 788 789 789 789 790 790 792 792 793 794 795 796 797 798 800 801 802 803 804 805 806 807 808 809 810 810 811 811 812 813 814 815 815 815 816 816 817 818 818 818
772 773 772 772 771 773 777 776 792 801 801 803 797 792 777 768 770 765 759 753 752 749 744 743 742 744 746 748 750 754 758 759 757 758 758 755 755 757 757 757 759 760 762 765 768 770 771 772 774 776 779 781 783 785 786 788 789 789 790 790 790 791 792 793 794 794 795 796 797 798 800 801 802 803 804 805 806 807 808 809 810 811 811 812 812 813 814 815 816 816 816 817 817 818 819 819 819
772 773 772 772 772 773 778 780 795 807 805 800 790 784 775 769 765 757 752 749 748 744 743 742 743 746 748 752 752 756 760 758 755 755 755 755 755 756 758 758 759 761 762 765 767 769 771 772 775 777 780 782 784 786 787 788 789 790 790 791 791 792 793 794 795 796 797 798 799 800 801 802 804 805 806 807 807 808 809 810 811 812 812 813 813 814 815 816 817 817 818 818 819 819 819 820 820
772 772 772 772 774 776 781 787 797 803 803 801 788 775 772 768 757 750 746 745 745 741 742 743 747 746 747 756 755 757 761 757 755 754 755 754 753 754 756 758 760 762 763 765 767 769 771 773 775 778 781 783 785 787 788 789 790 791 791 791 792 793 795 796 797 798 798 799 800 801 802 804 805 806 807 808 809 809 810 812 812 813 813 814 814 815 816 817 818 818 819 819 820 820 821 821 822
772 772 772 771 777 779 783 793 800 800 794 794 784 768 765 762 754 750 746 746 745 742 743 744 750 748 746 753 755 758 759 757 755 753 753 753 753 754 756 758 760 762 765 766 767 769 771 773 776 779 782 784 786 787 789 790 791 792 792 793 794 795 796 797 798 799 800 801 801 803 804 805 806 807 808 809 810 810 812 813 813 814 814 814 815 816 817 818 819 819 820 820 821 821 822 823 823
771 772 772 771 776 778 786 796 801 799 785 783 781 765 759 756 754 753 747 747 745 744 744 744 749 750 754 754 752 756 756 756 754 752 752 753 754 755 757 758 760 763 765 767 768 770 772 774 777 780 783 785 787 788 790 791 792 793 793 794 795 796 797 798 800 801 801 802 803 804 805 807 807 808 809 810 811 812 812 813 814 815 815 815 816 816 817 818 819 820 821 821 822 823 823 824 824
771 773 774 775 779 780 792 799 798 797 781 776 776 764 758 754 754 755 751 750 748 746 745 747 745 750 760 756 754 754 751 752 750 751 752 752 755 756 758 760 762 764 766 768 769 771 773 775 778 781 784 786 788 789 791 791 793 794 795 796 797 798 799 800 801 802 803 804 805 806 807 808 809 810 810 811 812 813 813 814 815 816 816 817 817 817 818 819 820 821 821 822 823 824 825 825 825
771 774 776 780 785 788 796 799 793 792 778 770 769 761 758 754 753 756 755 752 751 749 748 749 745 753 761 756 760 757 750 751 749 751 752 753 756 758 760 761 762 765 767 769 770 772 774 777 779 782 785 788 789 790 792 792 794 795 796 797 798 799 800 801 802 803 804 805 806 807 808 809 810 811 811 812 813 813 814 815 816 817 817 818 818 818 819 820 821 822 822 823 824 825 826 826 826
771 774 778 782 789 793 797 797 791 785 777 769 765 759 755 752 752 755 755 753 750 750 751 749 747 755 761 759 763 757 752 753 751 752 753 755 757 759 761 762 763 765 768 769 770 773 775 779 781 784 786 789 790 792 793 794 795 796 798 799 800 801 802 803 803 804 805 806 807 808 809 810 811 812 813 813 814 814 815 816 817 818 818 819 819 819 820 821 822 823 823 825 825 826 826 826 826
773 775 779 784 791 797 798 796 790 782 775 767 762 757 753 750 751 753 754 753 749 750 751 748 750 757 761 765 765 758 756 755 752 755 756 758 759 760 762 763 764 764 767 769 771 774 777 781 783 786 788 790 792 793 794 795 796 798 799 800 801 802 803 804 805 806 807 808 809 810 811 811 812 813 813 814 815 815 816 817 818 819 819 820 820 820 821 822 823 823 824 825 826 827 827 827 827
777 777 777 787 795 798 797 793 789 780 772 767 761 752 749 748 750 752 751 752 749 751 751 748 756 760 762 767 766 760 758 757 754 756 758 759 760 761 762 764 765 765 766 769 772 775 779 782 785 787 789 791 793 794 795 797 798 799 801 802 803 804 805 806 806 808 808 810 810 811 812 812 813 814 814 815 815 816 817 818 818 819 820 820 821 821 821 822 823 824 825 826 827 827 827 827 828
779 779 779 790 796 795 794 792 787 778 772 769 761 747 744 745 748 750 749 750 749 753 751 748 754 758 766 770 765 761 759 759 757 757 759 760 760 761 762 764 765 767 768 771 774 778 781 784 786 788 790 792 794 796 797 798 800 801 803 804 806 806 807 808 809 810 810 811 812 813 813 814 814 815 815 816 816 817 817 818 819 820 820 821 821 822 822 823 824 825 826 827 828 827 827 828 828
778 780 781 788 792 791 792 791 784 780 775 765 757 744 741 743 745 746 746 749 751 755 750 746 749 753 767 771 763 762 761 760 759 758 759 760 761 762 764 766 768 770 772 774 776 780 782 785 787 790 792 794 795 797 799 800 802 803 805 806 808 808 809 810 811 812 812 813 814 814 815 815 815 816 816 817 817 818 818 819 819 820 821 821 822 822 823 823 824 825 826 827 828 828 828 829 829
775 777 779 785 790 789 787 786 782 783 775 759 751 743 741 742 741 742 745 752 754 752 747 742 745 753 766 770 766 764 761 760 759 759 760 762 764 765 768 769 771 773 775 776 778 781 784 786 789 791 793 795 797 799 800 802 803 805 806 808 809 810 810 811 812 813 814 815 815 816 816 817 817 817 818 818 818 819 819 820 820 821 821 822 823 823 823 824 825 826 827 828 829 829 829 830 830
773 775 777 783 789 788 785 783 779 781 773 756 750 743 741 741 739 743 744 751 754 746 744 743 744 752 760 764 765 760 758 758 758 760 762 764 766 768 770 771 773 774 776 778 780 783 785 788 790 792 794 796 798 799 801 803 804 805 806 808 809 810 811 812 813 814 815 816 817 817 818 818 818 819 819 819 819 820 820 821 821 822 822 823 824 824 824 824 825 827 828 829 830 830 830 831 831
770 773 779 785 789 788 785 781 778 780 771 755 748 744 744 742 739 745 743 744 750 746 746 749 746 749 753 754 754 753 755 756 758 761 762 764 765 768 771 773 775 775 777 778 780 783 786 788 791 793 794 796 798 799 801 802 804 805 806 807 808 809 810 811 813 814 815 816 817 818 819 819 820 820 820 820 821 821 821 822 822 823 823 824 825 825 825 825 826 827 828 830 830 831 831 832 833
769 774 784 788 789 788 782 777 775 774 766 753 748 745 747 746 741 742 740 740 749 750 750 752 748 747 749 749 747 749 754 755 758 761 762 764 765 768 772 774 776 778 780 780 781 784 786 789 791 793 794 796 797 799 800 801 803 804 805 806 808 809 810 811 812 814 815 816 817 818 819 820 820 821 821 822 822 822 822 823 823 824 824 825 826 827 826 827 827 828 829 830 831 832 832 833 834
771 779 787 789 788 784 774 770 766 765 762 754 750 748 747 749 746 742 743 747 750 752 753 754 751 748 748 747 747 750 753 756 759 760 762 765 766 768 771 774 777 779 782 783 784 785 787 790 791 793 794 796 797 799 800 801 803 804 805 807 808 809 810 811 812 814 815 816 817 818 819 820 821 822 822 822 823 823 824 824 824 825 825 826 827 828 828 828 828 829 830 831 832 832 833 833 834
772 779 785 784 781 775 766 763 760 760 761 756 752 749 746 749 748 744 750 756 753 754 758 758 758 755 751 750 750 751 753 756 758 760 762 765 766 768 770 773 776 780 783 786 787 788 789 790 792 793 794 796 797 799 800 802 803 804 805 806 807 809 810 811 812 814 815 817 818 819 820 820 821 822 823 823 824 824 825 825 825 825 826 827 828 829 829 829 829 830 831 832 832 833 833 834 834
770 775 782 777 772 768 762 760 757 755 757 756 753 748 746 746 745 745 751 758 757 757 758 758 762 760 756 754 752 753 754 757 759 761 764 766 768 769 770 774 778 783 787 791 792 792 792 792 793 795 796 797 799 800 801 802 803 804 805 806 807 808 810 811 813 814 815 817 818 819 820 821 822 823 824 824 824 825 826 826 826 826 826 827 829 830 830 831 831 831 832 833 833 833 834 834 835
769 771 775 769 767 767 759 755 755 752 752 754 752 749 749 744 743 747 752 759 761 757 752 752 758 758 757 756 754 754 755 757 760 763 766 769 771 773 775 779 782 787 791 796 797 796 796 795 796 796 798 799 800 801 801 802 803 804 805 806 807 809 810 812 813 814 816 817 819 820 821 822 822 823 824 824 825 825 825 826 827 827 827 828 829 830 831 832 832 832 833 834 834 834 834 835 836
769 768 766 764 766 765 755 753 754 751 750 752 751 749 749 744 744 748 751 757 757 750 746 747 751 752 752 753 754 755 755 758 763 766 769 771 773 775 777 779 782 784 787 791 793 794 796 796 797 798 799 800 801 802 803 804 805 806 807 808 810 811 812 813 814 815 816 818 819 820 821 822 822 822 824 824 825 825 825 826 827 828 828 828 829 830 831 832 833 833 834 835 835 835 835 836 837
770 767 762 762 763 762 755 753 752 749 751 752 749 746 746 747 747 747 749 752 747 742 742 745 747 747 747 750 753 755 757 761 766 768 768 769 771 774 775 777 780 781 781 784 787 790 793 795 797 798 799 801 803 805 806 807 808 809 810 811 812 812 813 813 814 816 817 818 819 820 821 822 822 822 823 824 825 825 825 826 827 829 829 830 830 830 831 832 833 834 835 835 836 836 836 837 838
769 768 761 759 760 759 755 753 751 750 752 750 747 745 746 748 748 747 745 745 744 741 741 744 747 748 749 751 753 754 758 764 767 768 768 768 770 772 774 776 779 780 779 781 784 787 790 793 796 797 798 798 800 804 806 807 807 809 811 813 814 814 813 813 814 816 817 819 820 821 822 822 822 822 823 824 825 825 826 827 828 829 830 831 831 831 831 832 833 834 835 836 837 837 837 838 838
767 766 760 757 757 755 752 753 753 751 752 750 748 747 747 747 748 748 744 742 744 743 742 745 748 751 752 754 754 756 761 765 766 766 767 769 770 772 774 776 779 780 780 781 783 785 787 789 792 794 796 796 796 799 801 803 805 807 810 812 814 815 814 814 815 816 818 819 821 821 822 823 822 822 822 823 824 825 826 827 828 829 830 831 831 831 832 832 833 834 835 836 837 837 838 838 839
762 760 759 757 756 752 751 753 752 752 751 750 751 751 748 745 748 749 744 743 745 744 745 747 750 754 755 756 756 759 763 764 764 765 767 769 771 772 774 776 778 779 780 781 782 785 786 786 789 791 794 794 793 795 797 800 804 808 810 810 812 814 815 815 816 817 819 820 821 822 823 823 822 822 822 823 824 825 826 827 828 829 830 831 832 832 832 833 833 834 835 836 837 837 838 839 839
757 757 757 756 755 752 752 751 749 750 749 748 751 752 749 747 752 752 745 744 745 746 749 749 751 755 756 757 758 761 762 762 763 765 767 768 769 771 773 775 776 777 779 779 780 782 784 786 788 789 790 791 792 792 793 798 804 808 809 809 811 814 815 815 816 816 818 820 821 822 823 823 823 823 822 823 823 825 826 827 827 829 830 831 831 832 832 833 834 834 835 837 838 838 838 839 840
755 756 756 754 754 752 752 751 749 749 749 747 748 751 750 750 753 749 743 744 745 747 752 752 752 755 756 757 760 761 762 762 763 764 764 765 766 768 770 772 773 775 777 777 778 780 783 786 788 789 790 790 790 789 790 794 800 804 806 808 810 813 814 815 815 816 817 819 820 821 822 823 824 823 823 823 823 824 825 826 827 828 830 830 831 832 832 833 834 835 836 837 838 838 838 839 840
753 755 758 755 753 752 750 749 748 748 748 744 748 756 755 752 749 744 743 745 746 749 752 753 754 755 756 758 760 761 762 762 763 762 761 761 763 766 768 769 770 772 774 776 778 779 782 784 785 787 788 790 789 789 790 792 797 800 803 806 809 811 813 814 814 815 816 818 819 820 822 823 824 824 824 824 824 825 825 826 827 828 829 830 831 831 832 833 833 834 836 837 837 838 838 839 840
754 755 759 758 758 756 749 748 747 746 748 742 749 766 761 750 746 744 746 747 748 752 754 754 755 755 757 758 760 761 761 762 761 760 760 760 762 765 767 768 770 771 773 776 778 779 781 782 783 785 788 792 793 794 792 791 794 797 800 803 805 808 810 811 813 814 815 816 817 819 820 822 823 824 824 825 824 825 825 826 827 828 829 830 831 831 832 833 833 834 835 837 837 838 838 839 840
756 758 761 764 767 761 749 748 749 748 750 742 748 768 762 747 743 745 748 747 748 753 754 754 754 755 757 758 760 760 759 759 758 759 760 761 763 765 766 768 770 772 775 778 779 779 780 782 785 787 790 793 795 797 795 792 792 795 797 801 803 806 808 809 811 812 814 815 816 818 819 821 822 823 824 824 824 825 825 826 827 828 829 830 830 831 832 832 833 834 835 836 837 838 839 840 841
761 765 769 770 768 763 752 747 748 749 750 745 751 766 761 748 742 744 748 747 749 752 753 754 753 754 756 758 759 759 758 757 757 759 761 763 765 766 767 768 771 775 778 779 780 780 783 786 790 793 794 794 793 795 797 796 795 795 797 800 803 805 808 809 810 811 813 814 816 817 818 820 821 822 823 824 824 824 825 826 827 828 829 829 830 831 832 832 833 834 835 836 837 838 839 840 841
767 770 771 770 767 767 759 750 748 749 749 749 753 761 758 748 742 744 747 747 749 752 752 751 751 753 755 757 758 758 758 757 757 759 762 766 768 768 769 771 774 777 779 780 780 782 786 788 791 793 794 794 795 797 800 800 799 797 797 800 802 804 806 808 808 810 812 813 815 816 817 819 820 821 822 823 823 824 825 825 826 827 828 829 830 831 832 832 833 833 835 836 837 838 839 840 841
773 773 771 772 770 769 765 757 751 749 751 752 753 756 754 745 741 745 747 748 750 751 749 748 749 752 754 755 756 757 757 756 758 760 763 766 767 768 769 771 774 775 777 779 781 783 784 786 788 790 790 789 792 795 798 801 801 800 799 800 802 803 805 806 806 808 809 811 813 815 817 818 819 820 821 822 823 824 824 825 825 827 828 829 829 831 832 832 833 833 834 836 837 838 839 840 841
773 774 772 773 772 769 769 763 754 751 753 755 756 758 753 745 742 743 745 749 750 747 747 748 749 752 753 755 756 756 756 757 759 760 763 766 767 768 769 771 773 774 777 780 782 783 782 785 787 787 785 784 785 788 792 796 800 801 799 800 803 804 805 805 804 804 806 809 811 814 816 817 818 819 820 821 822 823 824 824 825 826 827 827 828 829 831 832 832 833 834 835 837 838 838 839 840
770 772 772 773 773 770 768 763 753 751 757 758 759 758 751 747 745 743 744 749 750 747 747 749 751 752 753 755 756 755 757 759 760 761 764 766 767 768 769 771 773 775 777 779 780 781 782 784 784 782 780 781 782 783 786 790 795 798 798 799 801 803 804 804 803 803 805 807 809 812 815 816 817 818 819 820 821 822 823 823 824 825 826 826 826 827 829 830 831 832 834 835 836 837 838 838 839
769 771 772 772 774 771 764 759 752 751 760 759 756 757 753 748 746 746 747 749 751 750 748 749 750 752 754 756 756 755 758 761 761 763 765 766 767 768 770 772 774 775 776 777 777 778 778 778 777 777 779 780 780 779 779 784 788 792 794 795 798 800 801 803 802 803 804 806 809 811 813 815 816 817 818 819 820 821 822 822 823 824 825 825 825 825 827 829 830 832 833 834 835 836 837 838 839
769 771 773 773 776 772 761 758 754 752 759 758 756 760 757 749 747 750 751 751 755 755 752 750 749 750 753 753 754 758 762 763 764 765 767 767 769 770 772 773 773 773 773 774 775 774 774 775 775 777 779 779 778 776 772 775 780 785 788 791 794 796 798 800 801 802 804 805 808 810 811 813 814 815 816 817 818 819 820 821 822 823 824 825 825 825 826 828 829 831 832 833 834 835 836 837 838
770 772 774 774 774 770 762 757 755 753 756 756 757 761 758 751 751 756 757 757 761 761 757 756 753 752 752 753 756 762 764 766 767 768 769 769 770 771 772 773 772 771 771 772 773 773 774 777 777 778 778 777 777 776 770 768 773 778 783 787 790 793 795 798 800 801 803 805 807 809 810 811 812 813 814 815 816 817 819 820 820 821 822 824 824 824 826 827 829 830 831 832 833 834 835 836 838
771 772 774 774 771 772 769 761 755 754 757 756 755 759 758 754 752 757 765 765 765 764 761 760 759 756 755 756 759 761 762 766 769 769 769 770 772 773 773 773 772 772 772 772 772 774 775 775 776 777 777 777 778 778 774 770 771 775 779 783 787 790 793 797 799 801 802 804 805 807 808 809 810 811 812 813 814 815 817 818 819 820 821 822 823 824 825 827 828 829 830 830 830 832 834 836 837
771 770 771 770 768 769 768 763 756 754 759 758 755 762 764 758 756 762 767 766 766 768 766 765 765 762 759 758 758 758 759 763 767 768 769 769 771 772 772 773 773 774 772 771 772 773 772 772 774 776 776 777 777 778 778 775 774 775 778 783 786 789 792 795 797 798 800 801 803 804 806 807 808 809 810 811 812 813 815 816 817 819 820 821 822 823 825 826 827 828 828 828 829 829 831 834 836
770 767 764 762 762 766 765 763 760 761 766 763 761 774 777 767 768 774 773 771 773 774 773 771 771 768 765 764 762 761 761 763 765 766 767 767 768 770 771 771 771 770 769 770 772 771 770 771 773 774 775 776 776 777 778 778 777 777 778 780 783 786 789 790 791 793 796 798 800 802 804 805 807 808 808 809 810 812 813 815 816 817 819 820 821 822 824 825 826 826 826 827 827 828 829 832 834
771 762 755 756 760 765 765 761 762 769 773 768 764 774 780 776 779 783 780 780 782 780 778 777 776 773 771 771 770 768 767 767 768 769 769 768 768 768 769 769 767 766 767 770 772 771 770 771 772 773 774 774 775 776 778 779 780 779 778 777 778 780 782 784 788 792 795 798 800 801 803 804 805 806 807 808 809 810 812 813 815 816 817 819 820 821 822 824 825 825 826 826 826 827 828 830 832
769 753 747 756 759 762 763 760 764 770 770 769 766 766 774 784 788 788 785 785 787 784 783 782 780 778 776 774 774 774 772 772 772 772 772 771 769 767 766 766 765 765 767 770 770 769 769 770 772 773 773 774 775 776 778 780 782 783 782 782 781 780 782 785 788 792 794 797 799 801 802 803 804 805 805 806 808 809 810 812 813 814 816 818 819 820 820 822 823 824 825 825 825 826 827 828 830
758 744 747 755 754 756 758 759 766 772 772 774 772 766 776 794 796 793 791 789 791 790 788 787 784 782 779 777 776 776 776 775 774 774 774 773 772 770 769 767 767 767 768 769 768 768 769 771 772 772 772 773 775 776 778 780 782 784 784 785 784 784 785 787 788 791 794 796 798 799 800 801 802 803 804 805 806 808 809 811 812 813 814 816 818 818 819 820 822 823 823 824 824 825 827 828 829
747 744 750 753 754 758 758 761 766 772 779 779 774 769 779 798 804 800 798 797 798 797 793 790 788 785 783 781 779 778 778 778 777 777 777 777 777 776 776 774 773 773 771 771 770 770 770 772 773 773 774 775 777 778 778 780 782 783 784 784 785 786 787 788 789 791 793 795 797 797 798 799 800 801 802 804 805 806 808 809 811 812 813 815 816 817 817 818 820 821 821 822 823 824 826 827 828
742 746 752 754 759 760 762 768 767 775 786 779 775 775 776 793 807 806 803 803 802 799 796 794 791 789 787 784 783 782 781 781 780 780 780 780 781 780 780 780 781 780 777 776 776 776 775 775 776 777 779 781 782 782 782 782 783 783 784 785 785 786 788 789 791 792 793 794 795 796 797 797 797 799 801 803 804 805 806 808 809 810 811 813 814 815 815 817 818 819 820 821 822 824 825 826 828
743 749 753 758 766 767 770 775 773 784 791 780 781 783 780 795 808 807 804 803 802 800 798 796 794 793 791 787 786 785 785 784 783 783 783 783 782 781 782 783 785 785 782 781 782 782 781 779 779 780 782 785 785 785 785 785 784 784 785 785 786 787 788 790 791 793 793 793 794 795 796 796 796 798 800 801 801 803 804 806 807 809 810 811 812 813 814 815 817 818 819 820 822 823 824 826 827
749 751 755 766 779 782 784 787 786 789 786 783 787 785 791 808 810 805 806 804 803 801 798 797 796 796 793 790 788 788 788 788 787 787 786 785 784 783 782 781 783 786 786 785 785 784 783 783 782 782 783 784 784 784 785 785 785 786 786 786 787 788 788 790 791 792 792 792 792 792 793 794 795 798 799 798 799 800 802 804 806 807 808 809 810 812 813 814 816 817 818 820 821 822 824 825 827
749 750 755 768 784 792 798 802 801 793 784 785 786 785 802 816 808 804 808 805 803 801 798 797 797 797 796 794 792 791 792 791 791 791 789 788 787 786 785 782 782 786 787 786 786 785 785 784 784 784 784 783 782 783 783 783 785 785 786 787 788 789 789 789 790 790 790 789 789 789 791 791 792 795 797 797 797 799 800 802 803 805 806 808 809 810 812 813 815 816 818 819 820 822 823 825 826
747 747 750 760 772 782 791 794 792 788 785 785 784 791 810 816 809 807 806 804 803 800 799 798 798 799 798 797 797 797 797 796 795 794 793 792 791 789 787 784 784 786 786 785 785 785 785 785 784 784 784 783 782 781 781 782 783 784 785 786 788 789 789 788 787 788 787 786 786 787 789 790 789 791 795 798 798 798 799 800 802 804 806 807 808 809 810 812 814 816 817 818 820 821 823 824 826
752 750 751 757 757 761 779 788 784 780 783 791 798 805 813 810 807 807 804 804 803 801 802 802 802 802 800 799 801 802 802 801 799 798 796 795 793 791 789 787 788 787 786 786 785 785 785 784 784 784 783 783 782 781 780 780 782 783 783 783 785 787 787 785 785 787 787 785 784 784 787 789 790 790 793 798 800 799 799 800 801 803 805 806 807 808 809 811 813 814 816 818 819 820 822 823 825
752 752 750 753 749 750 770 787 790 782 782 802 813 812 812 812 809 807 806 806 805 805 807 807 807 806 803 804 805 805 805 804 803 802 800 797 795 793 791 790 790 788 786 786 785 785 785 785 784 783 782 781 781 781 780 779 779 781 782 782 783 785 785 782 783 787 788 785 784 784 785 788 790 791 792 796 800 800 799 799 800 802 804 805 806 807 809 810 812 813 815 816 818 819 821 822 824
745 750 745 748 753 754 762 778 790 787 788 807 817 813 815 817 812 810 809 808 808 809 810 811 811 808 808 809 809 809 808 807 806 804 801 800 797 795 793 791 790 789 788 786 786 785 785 785 785 783 782 780 780 780 779 778 778 779 781 781 782 783 782 780 781 785 786 785 784 784 785 787 789 791 792 796 800 799 798 798 798 801 804 805 806 807 808 809 811 812 814 815 817 819 820 822 823
731 737 736 745 758 763 766 776 787 790 796 811 820 819 819 817 813 810 810 810 810 811 812 813 814 814 814 815 813 813 812 810 809 807 805 803 800 799 796 794 791 790 789 788 787 787 786 786 785 783 782 780 780 779 778 777 776 776 777 777 778 778 777 777 779 782 783 784 784 783 784 786 788 790 792 794 797 798 797 798 798 799 802 806 806 806 807 808 810 811 813 815 817 818 820 821 823
729 733 739 744 751 759 764 770 777 782 795 811 819 821 819 815 812 809 808 810 810 812 816 818 820 821 821 820 819 817 816 815 813 811 809 807 804 802 800 797 795 793 792 791 790 790 788 787 786 783 782 780 779 778 776 774 773 772 773 773 774 775 774 775 777 779 781 782 782 782 783 785 788 790 790 791 794 795 795 796 797 798 801 805 806 805 806 808 809 811 812 814 816 818 819 821 822
737 740 746 749 750 755 760 768 773 773 783 802 813 818 819 814 812 812 813 815 813 815 820 824 826 826 825 824 822 821 820 818 816 815 813 810 807 805 803 800 798 796 795 794 793 792 790 788 786 784 783 781 779 778 776 774 772 771 771 771 772 774 773 772 772 775 778 780 781 782 783 785 787 788 789 789 791 792 793 795 797 797 799 804 805 804 805 807 808 810 811 813 815 817 819 820 821
744 746 752 756 754 757 763 773 779 773 779 794 801 809 817 816 815 817 820 822 820 821 824 828 829 829 828 827 825 825 823 821 819 817 815 813 810 808 806 803 801 799 797 795 794 793 792 790 788 786 784 782 780 778 777 775 773 771 770 769 770 771 770 770 771 773 775 777 779 781 783 784 785 786 787 787 788 791 793 795 796 797 799 802 804 804 805 806 807 809 810 812 814 816 818 819 820